Weather History for Columbia Airport, CA

Change the Weather History Date:

Saturday, August 24, 2013

  Actual Average (KMOD) Record (KMOD)
Temperature  
Mean Temperature 70 °F -  
Max Temperature 86 °F 93 °F 106 °F (1931)
Min Temperature 53 °F 62 °F 47 °F (1949)
Degree Days  
Heating Degree Days 0 0  
Month to date heating degree days 0  
Since 1 June heating degree days 3  
Since 1 July heating degree days 0  
Cooling Degree Days 4 12  
Month to date cooling degree days 318  
Year to date cooling degree days 1253  
Since 1 June cooling degree days 1054  
Growing Degree Days 20 (Base 50)    
Moisture  
Dew Point 44 °F    
Average Humidity 45    
Maximum Humidity 72    
Minimum Humidity 19    
Precipitation  
Precipitation 0.00 in 0.01 in 0.00 in (2014)
Month to date precipitation 0.02  
Year to date precipitation 8.77  
Since 1 July precipitation 0.02  
Snow  
Snow 0.00 in - - ()
Month to date snowfall  
Since 1 June snowfall  
Since 1 July snowfall  
Snow Depth -    
Sea Level Pressure  
Sea Level Pressure 29.90 in    
Wind  
Wind Speed 2 mph (West)    
Max Wind Speed 12 mph    
Max Gust Speed 21 mph    
Visibility 8 miles    
Events      
T = Trace of Precipitation, MM = Missing Value Source: NWS Daily Summary

Daily Weather History Graph

Daily Weather History Graph

Search for Another Location

Airport:

Trip Planner

Search our weather history database for the weather conditions in past years. The results will help you decide how hot, cold, wet, or windy it might be!

Date:

Astronomy

Aug. 24, 2013 Rise Set
Actual Time 6:24 AM PDT 7:42 PM PDT
Civil Twilight 5:57 AM PDT 8:09 PM PDT
Nautical Twilight 5:24 AM PDT 8:42 PM PDT
Astronomical Twilight 4:50 AM PDT 9:16 PM PDT
Moon 9:44 PM PDT (8/24) 10:25 AM PDT (8/24)
Length of Visible Light 14h 12m
Length of Day
13h 17m
Waning Gibbous, 83% of the Moon is Illuminated
Aug 24
Waning Gibbous
Aug 28
Last Quarter
Sep 5
New
Sep 12
First Quarter
Sep 19
Full

Hourly Weather History & Observations

Time (PDT) Temp. Dew Point Humidity Pressure Visibility Wind Dir Wind Speed Gust Speed Precip Events Conditions
12:15 AM 57.2 °F 46.4 °F 67% 29.87 in 10.0 mi Calm Calm - N/A   Clear
12:35 AM 57.2 °F 46.4 °F 67% 29.87 in 10.0 mi Calm Calm - N/A   Clear
12:55 AM 57.2 °F 46.4 °F 67% 29.87 in 10.0 mi Calm Calm - N/A   Clear
1:15 AM 57.2 °F 44.6 °F 63% 29.87 in 10.0 mi Calm Calm - N/A   Clear
1:35 AM 57.2 °F 46.4 °F 67% 29.87 in 10.0 mi Calm Calm - N/A   Clear
1:55 AM 55.4 °F 44.6 °F 67% 29.87 in 10.0 mi Calm Calm - N/A   Clear
2:15 AM 55.4 °F 44.6 °F 67% 29.87 in 10.0 mi Calm Calm - N/A   Clear
2:35 AM 55.4 °F 44.6 °F 67% 29.87 in 10.0 mi Calm Calm - N/A   Clear
2:55 AM 55.4 °F 44.6 °F 67% 29.88 in 10.0 mi Calm Calm - N/A   Clear
3:15 AM 55.4 °F 44.6 °F 67% 29.88 in 10.0 mi Calm Calm - N/A   Clear
3:35 AM 53.6 °F 44.6 °F 72% 29.88 in 10.0 mi Calm Calm - N/A   Clear
3:55 AM 55.4 °F 44.6 °F 67% 29.87 in 10.0 mi Calm Calm - N/A   Clear
4:15 AM 55.4 °F 44.6 °F 67% 29.87 in 9.0 mi Calm Calm - N/A   Clear
4:35 AM 53.6 °F 44.6 °F 72% 29.87 in 7.0 mi Calm Calm - N/A   Clear
4:55 AM 55.4 °F 44.6 °F 67% 29.87 in 5.0 mi Calm Calm - N/A   Clear
5:15 AM 55.4 °F 44.6 °F 67% 29.87 in 5.0 mi Calm Calm - N/A   Clear
5:35 AM 53.6 °F 44.6 °F 72% 29.87 in 4.0 mi Calm Calm - N/A   Clear
5:55 AM 53.6 °F 44.6 °F 72% 29.88 in 4.0 mi Calm Calm - N/A   Clear
6:15 AM 53.6 °F 44.6 °F 72% 29.88 in 3.0 mi Calm Calm - N/A   Clear
6:35 AM 55.4 °F 44.6 °F 67% 29.88 in 3.0 mi Calm Calm - N/A   Clear
6:55 AM 53.6 °F 44.6 °F 72% 29.88 in 3.0 mi Calm Calm - N/A   Clear
7:15 AM 55.4 °F 46.4 °F 72% 29.89 in 2.5 mi Calm Calm - N/A   Clear
7:35 AM 59.0 °F 46.4 °F 63% 29.89 in 3.0 mi Calm Calm - N/A   Partly Cloudy
7:55 AM 60.8 °F 46.4 °F 59% 29.89 in 3.0 mi Calm Calm - N/A   Mostly Cloudy
8:15 AM 64.4 °F 48.2 °F 56% 29.90 in 2.5 mi Calm Calm - N/A   Overcast
8:35 AM 68.0 °F 48.2 °F 49% 29.90 in 1.2 mi Calm Calm - N/A   Overcast
8:55 AM 71.6 °F 46.4 °F 41% 29.90 in 0.8 mi Calm Calm - N/A   Overcast
9:15 AM 75.2 °F 41.0 °F 29% 29.91 in 0.5 mi SE 3.5 mph - N/A   Mostly Cloudy
9:35 AM 75.2 °F 41.0 °F 29% 29.92 in 0.8 mi South 3.5 mph - N/A   Unknown
9:55 AM 77.0 °F 41.0 °F 28% 29.92 in 3.0 mi South 4.6 mph - N/A   Clear
10:15 AM 78.8 °F 39.2 °F 24% 29.92 in 1.2 mi SW 5.8 mph - N/A   Clear
10:35 AM 78.8 °F 42.8 °F 28% 29.93 in 1.0 mi SSW 5.8 mph - N/A   Clear
10:55 AM 78.8 °F 41.0 °F 26% 29.93 in 1.2 mi South 4.6 mph - N/A   Clear
11:15 AM 82.4 °F 41.0 °F 23% 29.93 in 2.0 mi WSW 4.6 mph - N/A   Clear
11:35 AM 80.6 °F 41.0 °F 24% 29.92 in 3.0 mi West 6.9 mph - N/A   Clear
11:55 AM 84.2 °F 39.2 °F 20% 29.92 in 10.0 mi SW 3.5 mph - N/A   Clear
12:15 PM 82.4 °F 39.2 °F 21% 29.91 in 10.0 mi Calm Calm - N/A   Clear
12:35 PM 84.2 °F 39.2 °F 20% 29.91 in 10.0 mi West 6.9 mph - N/A   Clear
12:55 PM 84.2 °F 39.2 °F 20% 29.91 in 10.0 mi WSW 6.9 mph - N/A   Clear
1:15 PM 86.0 °F 39.2 °F 19% 29.91 in 10.0 mi WSW 10.4 mph 20.7 mph N/A   Clear
1:35 PM 86.0 °F 39.2 °F 19% 29.91 in 10.0 mi WSW 9.2 mph 18.4 mph N/A   Clear
1:55 PM 86.0 °F 39.2 °F 19% 29.91 in 10.0 mi West 11.5 mph - N/A   Clear
2:15 PM 86.0 °F 39.2 °F 19% 29.91 in 10.0 mi WSW 9.2 mph - N/A   Clear
2:35 PM 86.0 °F 39.2 °F 19% 29.90 in 10.0 mi WSW 6.9 mph 16.1 mph N/A   Clear
2:55 PM 86.0 °F 41.0 °F 20% 29.90 in 10.0 mi West 10.4 mph - N/A   Clear
3:15 PM 86.0 °F 41.0 °F 20% 29.89 in 10.0 mi WSW 8.1 mph - N/A   Clear
3:35 PM 86.0 °F 39.2 °F 19% 29.89 in 10.0 mi WSW 6.9 mph - N/A   Clear
3:55 PM 86.0 °F 41.0 °F 20% 29.88 in 10.0 mi SW 8.1 mph - N/A   Clear
4:15 PM 84.2 °F 39.2 °F 20% 29.88 in 10.0 mi WNW 3.5 mph - N/A   Clear
4:35 PM 86.0 °F 39.2 °F 19% 29.88 in 10.0 mi WSW 4.6 mph - N/A   Clear
4:55 PM 84.2 °F 41.0 °F 22% 29.88 in 10.0 mi SW 8.1 mph - N/A   Clear
5:15 PM 84.2 °F 41.0 °F 22% 29.88 in 10.0 mi West 6.9 mph - N/A   Clear
5:35 PM 82.4 °F 41.0 °F 23% 29.88 in 10.0 mi WNW 6.9 mph - N/A   Clear
5:55 PM 82.4 °F 42.8 °F 25% 29.88 in 10.0 mi West 8.1 mph - N/A   Clear
6:15 PM 82.4 °F 42.8 °F 25% 29.88 in 10.0 mi West 9.2 mph - N/A   Clear
6:35 PM 80.6 °F 44.6 °F 28% 29.88 in 10.0 mi NW 5.8 mph - N/A   Clear
6:55 PM 77.0 °F 44.6 °F 32% 29.88 in 10.0 mi WNW 5.8 mph - N/A   Clear
7:15 PM 75.2 °F 46.4 °F 36% 29.89 in 10.0 mi WNW 6.9 mph - N/A   Clear
7:35 PM 73.4 °F 46.4 °F 38% 29.90 in 10.0 mi NW 5.8 mph - N/A   Clear
7:55 PM 73.4 °F 48.2 °F 41% 29.90 in 10.0 mi NW 5.8 mph - N/A   Clear
8:15 PM 71.6 °F 48.2 °F 43% 29.91 in 10.0 mi NW 3.5 mph - N/A   Clear
8:35 PM 69.8 °F 48.2 °F 46% 29.91 in 10.0 mi NNW 3.5 mph - N/A   Clear
8:55 PM 68.0 °F 48.2 °F 49% 29.91 in 10.0 mi Calm Calm - N/A   Clear
9:15 PM 66.2 °F 48.2 °F 52% 29.92 in 10.0 mi NNW 3.5 mph - N/A   Clear
9:35 PM 66.2 °F 48.2 °F 52% 29.92 in 10.0 mi Calm Calm - N/A   Clear
9:55 PM 66.2 °F 48.2 °F 52% 29.92 in 10.0 mi Calm Calm - N/A   Clear
10:15 PM 62.6 °F 48.2 °F 59% 29.92 in 10.0 mi Calm Calm - N/A   Clear
10:35 PM 62.6 °F 48.2 °F 59% 29.92 in 10.0 mi Calm Calm - N/A   Clear
10:55 PM 62.6 °F 48.2 °F 59% 29.93 in 10.0 mi NE 3.5 mph - N/A   Clear
11:15 PM 62.6 °F 48.2 °F 59% 29.92 in 10.0 mi Calm Calm - N/A   Clear
11:35 PM 59.0 °F 46.4 °F 63% 29.92 in 10.0 mi Calm Calm - N/A   Clear
11:55 PM 59.0 °F 46.4 °F 63% 29.92 in 10.0 mi NE 4.6 mph - N/A   Clear